Weather History for Greenville, AL

Change the Weather History Date:

Tuesday, November 2, 2010

  Actual Average Record
Temperature  
Mean Temperature 67 °F -  
Max Temperature 72 °F 74 °F 86 °F (1987)
Min Temperature 62 °F 51 °F 30 °F (1993)
Cooling Degree Days 2    
Growing Degree Days 17 (Base 50)    
Moisture  
Dew Point 56 °F    
Average Humidity 75    
Maximum Humidity 93    
Minimum Humidity 61    
Precipitation  
Precipitation 0.00 in - - ()
Sea Level Pressure  
Sea Level Pressure 30.08 in    
Wind  
Wind Speed 5 mph (East)    
Max Wind Speed 13 mph    
Max Gust Speed 20 mph    
Visibility 10 miles    
Events Rain    
Averages and records for this station are not official NWS values.
T = Trace of Precipitation, MM = Missing Value Source: NWS Daily Summary

Daily Weather History Graph

Daily Weather History Graph

Search for Another Location

Airport:

Trip Planner

Search our weather history database for the weather conditions in past years. The results will help you decide how hot, cold, wet, or windy it might be!

Date:

Astronomy

Nov. 02, 2010 Rise Set
Actual Time 7:03 AM CDT 5:55 PM CDT
Civil Twilight 6:38 AM CDT 6:21 PM CDT
Nautical Twilight 6:09 AM CDT 6:50 PM CDT
Astronomical Twilight 5:40 AM CDT 7:18 PM CDT
Moon 3:03 AM CDT (11/2) 3:23 PM CDT (11/2)
Length of Visible Light 11h 42m
Length of Day
10h 52m
Waning Crescent, 16% of the Moon is Illuminated
Nov 2
Waning Crescent
Nov 5
New
Nov 13
First Quarter
Nov 21
Full
Nov 28
Last Quarter

Hourly Weather History & Observations

Time (CDT) Temp. Dew Point Humidity Pressure Visibility Wind Dir Wind Speed Gust Speed Precip Events Conditions
12:56 AM 63.0 °F 60.1 °F 90% 30.11 in 10.0 mi Calm Calm - N/A   Clear
1:56 AM 63.0 °F 60.1 °F 90% 30.11 in 10.0 mi Calm Calm - N/A   Clear
2:29 AM 63.0 °F 61.0 °F 93% 30.11 in 10.0 mi East 6.9 mph - N/A   Mostly Cloudy
2:47 AM 64.0 °F 61.0 °F 90% 30.10 in 10.0 mi East 4.6 mph - N/A   Scattered Clouds
2:56 AM 64.9 °F 60.1 °F 84% 30.09 in 10.0 mi East 6.9 mph - N/A   Partly Cloudy
3:25 AM 64.9 °F 59.0 °F 81% 30.10 in 10.0 mi East 6.9 mph - N/A   Mostly Cloudy
3:56 AM 64.9 °F 59.0 °F 81% 30.09 in 10.0 mi ENE 5.8 mph - N/A   Mostly Cloudy
4:05 AM 64.0 °F 57.9 °F 80% 30.10 in 10.0 mi East 6.9 mph - N/A   Mostly Cloudy
4:56 AM 64.0 °F 55.0 °F 73% 30.09 in 10.0 mi East 5.8 mph - N/A   Partly Cloudy
5:34 AM 64.0 °F 54.0 °F 70% 30.11 in 10.0 mi East 5.8 mph - N/A   Mostly Cloudy
5:44 AM 63.0 °F 54.0 °F 72% 30.11 in 10.0 mi East 5.8 mph - N/A   Mostly Cloudy
5:53 AM 63.0 °F 54.0 °F 72% 30.10 in 10.0 mi East 4.6 mph - N/A   Mostly Cloudy
5:56 AM 63.0 °F 54.0 °F 72% 30.09 in 10.0 mi East 5.8 mph - N/A   Overcast
6:51 AM 63.0 °F 55.0 °F 75% 30.11 in 10.0 mi ENE 3.5 mph - 0.00 in Rain Light Rain
6:56 AM 63.0 °F 55.0 °F 75% 30.11 in 10.0 mi ENE 4.6 mph - 0.00 in Rain Light Rain
7:08 AM 62.1 °F 54.0 °F 75% 30.11 in 10.0 mi East 5.8 mph - 0.00 in   Scattered Clouds
7:56 AM 62.1 °F 54.0 °F 75% 30.10 in 10.0 mi East 6.9 mph - 0.00 in   Clear
8:56 AM 63.0 °F 54.0 °F 72% 30.12 in 10.0 mi ENE 6.9 mph - N/A   Clear
9:56 AM 64.0 °F 54.0 °F 70% 30.13 in 10.0 mi ESE 8.1 mph - N/A   Clear
4:56 PM 72.0 °F 57.9 °F 61% 30.00 in 10.0 mi East 8.1 mph - N/A   Scattered Clouds
5:56 PM 69.1 °F 57.9 °F 68% 30.01 in 10.0 mi East 8.1 mph - N/A   Clear
6:56 PM 66.9 °F 57.0 °F 70% 30.03 in 10.0 mi East 10.4 mph - N/A   Clear
8:56 PM 64.9 °F 55.9 °F 73% 30.03 in 10.0 mi East 10.4 mph - N/A   Clear
9:56 PM 64.9 °F 54.0 °F 68% 30.05 in 10.0 mi East 12.7 mph 19.6 mph N/A   Overcast
10:56 PM 64.0 °F 53.1 °F 67% 30.05 in 10.0 mi East 9.2 mph 18.4 mph N/A   Mostly Cloudy
11:16 PM 63.0 °F 53.1 °F 70% 30.05 in 10.0 mi East 10.4 mph 18.4 mph N/A   Overcast
11:56 PM 63.0 °F 53.1 °F 70% 30.03 in 10.0 mi East 12.7 mph - N/A   Overcast